Погода в Новой Чернорудке

Украина / Житомирская область     49°50′54″N   29°01′30″E
темп.,
°C
ветер,
м/с
пор.,
м/с
влажн.,
%
обл.,
%
осадки,
мм/ч
давл.,
гПа
погр.,
м
13 июня, вс
вс1300:00+14юз46925 0.0 1010104
03:00+13юз4995100 0.0 1008168
06:00+13ююз4994100 0.0 1006177
09:00+17зюз71188100 0.7 1006735
12:00+14сз7983100 0.1 1008720
15:00+14сз5991100 1.3 1009744
18:00+15сз477992 1.0 10101020
21:00+12зсз4990100 1.1 1010247
14 июня, пн
пн1400:00+10зсз4995100 0.0 1011206
03:00+10сз3795100 0.0 1011202
06:00+11сз3798100 1.1 1011227
09:00+11ссз4997100 3.4 1013388
12:00+12ссз51097100 3.9 1013538
15:00+13ссз5109591 4.7 1014436
18:00+16с5108999 0.4 1013371
21:00+15ссв3495100 1.1 101459
15 июня, вт
вт1500:00+14с3497100 0.2 101569
03:00+13с369968 0.2 1015131
06:00+12с489933 0.0 1016180
09:00+17с458945 0.0 1016442
12:00+20с457789 0.0 1015921
15:00+21с567597 0.1 10141181
18:00+21с69829 1.4 1013887
21:00+17с5119140 3.1 1013326
16 июня, ср
ср1600:00+15ссз512943 0.0 1013297
03:00+14ссз5139570 0.0 1014304
06:00+13ссз5129570 0.0 1014292
09:00+17с61081100 0.0 1015507
12:00+21ссв687181 0.0 10151087
15:00+21с687494 0.3 10151309
18:00+22с48703 0.1 10151471
21:00+17с5129148 1.0 1016338
17 июня, чт
чт1700:00+15с412965 0.0 1017331
03:00+13с411954 0.0 1017272
06:00+12с510940 0.0 1018236
09:00+17ссв69866 0.0 1018463
12:00+21св787144 0.0 10181180
15:00+21св797728 1.5 10181188
18:00+20св698358 1.8 1019962
21:00+17св39939 2.6 1019266